[ ตารางข้อมูล ] [ Min-Max ] [ วันนี้4 ] [ วันนี้2 ] [ เทียบ3วัน A ] [ เทียบ4วัน B ]   

วันนี้2   [ ◀ ช่วงเก่ากว่า ] [ ช่วงที่ 265 ] [ ช่วงใหม่กว่า ▶ ] [ ล่าสุด ]    [ 3 ชั่วโมง ] [ 6 ชั่วโมง ] [ 12 ชั่วโมง ] [ 24 ชั่วโมง ]   วันนี้2

อุณภูมิตู้ Knockdown4529  ราย 3 ชั่วโมง  ที่วัดได้ ในช่วงวันเวลา 04/04/2026 (09:12) ถึง 04/04/2026 (12:12) 
ความชื้นในตู้ Knockdown4529  ราย 3 ชั่วโมง  ที่วัดได้ ในช่วงวันเวลา 04/04/2026 (09:12) ถึง 04/04/2026 (12:12) 

 
DS18B20SHTC3 
IDDate d/m/Y & Timedata1
สูง
data2
ต่ำ
data3
นอก
temp
pcb
hum
pcb
Time
 8720  04/04/2026 12:12:18  31.4  29.8  32.5  30.6  65.0  12:12 
 8719  04/04/2026 12:07:36  31.3  29.7  32.5  30.4  64.8  12:07 
 8718  04/04/2026 12:02:55  31.2  29.7  32.5  30.5  64.9  12:02 
 8717  04/04/2026 11:58:13  31.2  29.6  32.4  30.4  64.9  11:58 
 8716  04/04/2026 11:53:31  31.1  29.6  32.1  30.4  65.0  11:53 
 8715  04/04/2026 11:48:49  31.1  29.5  33.0  30.2  64.8  11:48 
 8714  04/04/2026 11:44:07  31.0  29.4  32.8  30.2  64.8  11:44 
 8713  04/04/2026 11:39:25  30.9  29.4  32.7  30.2  64.8  11:39 
 8712  04/04/2026 11:34:42  30.8  29.3  32.7  30.0  64.9  11:34 
 8711  04/04/2026 11:30:00  30.8  29.2  32.7  30.0  64.8  11:30 
 8710  04/04/2026 11:25:18  30.7  29.2  32.6  29.7  64.8  11:25 
 8709  04/04/2026 11:20:36  30.6  29.1  32.3  29.8  64.9  11:20 
 8708  04/04/2026 11:15:53  30.5  29.0  32.5  29.7  65.0  11:15 
 8707  04/04/2026 11:11:12  30.4  28.9  32.1  29.7  65.1  11:11 
 8706  04/04/2026 11:06:30  30.4  28.9  31.9  29.6  65.1  11:06 
 8705  04/04/2026 11:01:48  30.3  28.8  32.5  29.4  65.1  11:01 
 8704  04/04/2026 10:57:06  30.2  28.8  32.3  29.2  65.3  10:57 
 8703  04/04/2026 10:52:24  30.1  28.7  32.2  29.2  65.4  10:52 
 8702  04/04/2026 10:47:40  30.0  28.6  32.2  29.2  65.4  10:47 
 8701  04/04/2026 10:42:58  29.9  28.5  32.2  29.2  65.6  10:42 
 8700  04/04/2026 10:38:16  29.8  28.4  32.2  29.0  65.5  10:38 
 8699  04/04/2026 10:33:34  29.7  28.3  31.9  29.0  65.7  10:33 
 8698  04/04/2026 10:28:52  29.6  28.2  32.0  28.9  65.8  10:28 
 8697  04/04/2026 10:24:10  29.4  28.2  31.6  28.8  65.8  10:24 

Data every 5 minute.


ใช้เวลาประมวลผล 0.00212 วินาที